Cambridge, MN

5:22 PM CST on November 24, 2017 (GMT -0600)
Cambridge Municipal

Weather History for KCBG - January, 2014

Change the Weather History Date:

Thursday, January 9, 2014

  Actual Average Record
Temperature  
Mean Temperature 0 °F -  
Max Temperature 19 °F 14 °F 48 °F (2002)
Min Temperature -20 °F -5 °F -41 °F (1977)
Degree Days  
Heating Degree Days 66    
Moisture  
Dew Point -1 °F    
Average Humidity 67    
Maximum Humidity 79    
Minimum Humidity 57    
Precipitation  
Precipitation 0.00 in - - ()
Sea Level Pressure  
Sea Level Pressure 30.10 in    
Wind  
Wind Speed 6 mph (SSE)    
Max Wind Speed 14 mph    
Max Gust Speed 22 mph    
Visibility 10 miles    
Events      
Averages and records for this station are not official NWS values.
T = Trace of Precipitation, MM = Missing Value Source: NWS Daily Summary

Daily Weather History Graph

Daily Weather History Graph

Search for Another Location

Airport or City:

Trip Planner

Search our weather history database for the weather conditions in past years. The results will help you decide how hot, cold, wet, or windy it might be!

Date:

Astronomy

Jan. 09, 2014 Rise Set
Actual Time 7:52 AM CST 4:48 PM CST
Civil Twilight 7:18 AM CST 5:22 PM CST
Nautical Twilight 6:41 AM CST 5:59 PM CST
Astronomical Twilight 6:05 AM CST 6:35 PM CST
Moon 12:22 PM CST (1/9) 1:52 AM CST (1/9)
Length of Visible Light 10h 03m
Length of Day
8h 56m
Waxing Gibbous, 66% of the Moon is Illuminated
Jan 9
Waxing Gibbous
Jan 15
Full
Jan 23
Last Quarter
Jan 30
New
Feb 6
First Quarter

Hourly Weather History & Observations

Time (CST) Temp. Windchill Dew Point Humidity Pressure Visibility Wind Dir Wind Speed Gust Speed Precip Events Conditions
12:16 AM -18.4 °F - -27.4 °F 63% 30.37 in 10.0 mi Calm Calm - N/A   Clear
12:35 AM -20.2 °F - -27.4 °F 69% 30.37 in 5.0 mi Calm Calm - N/A   Haze
12:56 AM -20.2 °F -30.9 °F -27.4 °F 69% 30.36 in 10.0 mi SSE 3.5 mph - N/A   Clear
1:15 AM -18.4 °F - -25.6 °F 70% 30.37 in 5.0 mi Calm Calm - N/A   Haze
1:36 AM -16.6 °F - -23.8 °F 70% 30.35 in 10.0 mi Calm Calm - N/A   Clear
1:55 AM -11.2 °F -20.6 °F -18.4 °F 70% 30.34 in 10.0 mi SE 3.5 mph - N/A   Clear
2:15 AM -9.4 °F - -18.4 °F 65% 30.33 in 10.0 mi Calm Calm - N/A   Scattered Clouds
2:36 AM -7.6 °F -20.6 °F -14.8 °F 71% 30.32 in 10.0 mi SSE 5.8 mph - N/A   Overcast
2:55 AM -5.8 °F -18.4 °F -14.8 °F 65% 30.32 in 10.0 mi SSE 5.8 mph - N/A   Overcast
3:15 AM -5.8 °F -19.9 °F -13.0 °F 71% 30.31 in 10.0 mi SSE 6.9 mph - N/A   Overcast
3:36 AM -5.8 °F -14.5 °F -11.2 °F 77% 30.29 in 10.0 mi South 3.5 mph - N/A   Overcast
3:55 AM -4.0 °F -12.4 °F -11.2 °F 71% 30.29 in 10.0 mi SSE 3.5 mph - N/A   Overcast
4:15 AM -2.2 °F -10.4 °F -11.2 °F 66% 30.29 in 10.0 mi South 3.5 mph - N/A   Overcast
4:35 AM -2.2 °F - -11.2 °F 66% 30.29 in 10.0 mi Calm Calm - N/A   Overcast
4:56 AM -2.2 °F - -9.4 °F 71% 30.28 in 10.0 mi Calm Calm - N/A   Overcast
5:15 AM -0.4 °F -12.0 °F -9.4 °F 66% 30.26 in 10.0 mi SE 5.8 mph - N/A   Overcast
5:35 AM -0.4 °F -13.4 °F -7.6 °F 72% 30.25 in 10.0 mi SSE 6.9 mph - N/A   Overcast
5:56 AM 1.4 °F -11.3 °F -7.6 °F 66% 30.22 in 10.0 mi SE 6.9 mph - N/A   Overcast
6:15 AM 1.4 °F -9.9 °F -7.6 °F 66% 30.22 in 10.0 mi SE 5.8 mph - N/A   Overcast
6:36 AM 1.4 °F -9.9 °F -7.6 °F 66% 30.21 in 10.0 mi SE 5.8 mph - N/A   Overcast
6:55 AM 1.4 °F -12.5 °F -5.8 °F 72% 30.21 in 10.0 mi SE 8.1 mph - N/A   Overcast
7:16 AM 1.4 °F -12.5 °F -5.8 °F 72% 30.21 in 10.0 mi SSE 8.1 mph - N/A   Overcast
7:36 AM 3.2 °F -11.3 °F -5.8 °F 66% 30.20 in 10.0 mi SSE 9.2 mph - N/A   Overcast
7:56 AM 3.2 °F -11.3 °F -5.8 °F 66% 30.19 in 10.0 mi SSE 9.2 mph - N/A   Overcast
8:15 AM 3.2 °F -12.2 °F -5.8 °F 66% 30.19 in 10.0 mi SSE 10.4 mph - N/A   Overcast
8:36 AM 5.0 °F -6.9 °F -5.8 °F 61% 30.19 in 10.0 mi SE 6.9 mph - N/A   Overcast
8:55 AM 5.0 °F -6.9 °F -5.8 °F 61% 30.18 in 10.0 mi SE 6.9 mph - N/A   Overcast
9:16 AM 6.8 °F -4.8 °F -4.0 °F 61% 30.17 in 10.0 mi SSE 6.9 mph - N/A   Mostly Cloudy
9:35 AM 6.8 °F -5.9 °F -4.0 °F 61% 30.17 in 10.0 mi SE 8.1 mph - N/A   Scattered Clouds
9:55 AM 6.8 °F -4.8 °F -4.0 °F 61% 30.16 in 10.0 mi SSE 6.9 mph - N/A   Clear
10:15 AM 8.6 °F -5.5 °F -2.2 °F 62% 30.15 in 10.0 mi South 10.4 mph - N/A   Scattered Clouds
10:36 AM 8.6 °F -7.0 °F -2.2 °F 62% 30.15 in 10.0 mi SSE 12.7 mph - N/A   Scattered Clouds
10:55 AM 10.4 °F -4.1 °F -0.4 °F 62% 30.14 in 10.0 mi SSE 11.5 mph - N/A   Clear
11:15 AM 10.4 °F -4.1 °F -0.4 °F 62% 30.13 in 10.0 mi South 11.5 mph - N/A   Scattered Clouds
11:36 AM 12.2 °F -1.8 °F -0.4 °F 57% 30.11 in 10.0 mi SSE 11.5 mph 16.1 mph N/A   Clear
11:56 AM - - - N/A% 30.10 in - SSE 10.4 mph - N/A   Unknown
12:15 PM 14.0 °F 0.5 °F 1.4 °F 57% 30.08 in 10.0 mi SSE 11.5 mph - N/A   Clear
12:36 PM 15.8 °F 2.7 °F 3.2 °F 58% 30.07 in 10.0 mi SSE 11.5 mph - N/A   Clear
12:55 PM 15.8 °F 1.4 °F 3.2 °F 58% 30.05 in 10.0 mi South 13.8 mph 21.9 mph N/A   Clear
1:16 PM 15.8 °F 3.4 °F 5.0 °F 62% 30.04 in 10.0 mi SSE 10.4 mph - N/A   Clear
1:36 PM 17.6 °F 5.0 °F 5.0 °F 58% 30.03 in 10.0 mi SSE 11.5 mph - N/A   Scattered Clouds
1:55 PM 17.6 °F 5.0 °F 6.8 °F 63% 30.03 in 10.0 mi SSE 11.5 mph - N/A   Clear
2:36 PM 19.4 °F 7.2 °F 6.8 °F 58% 30.00 in 10.0 mi SSE 11.5 mph 17.3 mph N/A   Scattered Clouds
2:55 PM 19.4 °F 6.0 °F 8.6 °F 63% 30.00 in 10.0 mi SSE 13.8 mph 20.7 mph N/A   Scattered Clouds
3:16 PM 19.4 °F 6.6 °F 8.6 °F 63% 29.99 in 10.0 mi SSE 12.7 mph 17.3 mph N/A   Scattered Clouds
3:35 PM 19.4 °F 7.2 °F 10.4 °F 68% 29.98 in 10.0 mi SSE 11.5 mph 19.6 mph N/A   Clear
3:55 PM 19.4 °F 7.2 °F 10.4 °F 68% 29.98 in 10.0 mi SSE 11.5 mph 16.1 mph N/A   Clear
4:16 PM 19.4 °F 9.5 °F 10.4 °F 68% 29.97 in 10.0 mi SE 8.1 mph - N/A   Clear
5:16 PM 19.4 °F 8.6 °F 10.4 °F 68% 29.94 in 10.0 mi SE 9.2 mph - N/A   Clear
5:35 PM 19.4 °F 8.6 °F 10.4 °F 68% 29.93 in 10.0 mi SE 9.2 mph - N/A   Clear
5:56 PM 17.6 °F 5.7 °F 8.6 °F 68% 29.93 in 10.0 mi SSE 10.4 mph - N/A   Clear
6:16 PM 17.6 °F 5.7 °F 8.6 °F 68% 29.92 in 10.0 mi SSE 10.4 mph - N/A   Clear
6:35 PM 17.6 °F 7.3 °F 8.6 °F 68% 29.92 in 10.0 mi SSE 8.1 mph 18.4 mph N/A   Clear
6:55 PM 17.6 °F 8.2 °F 8.6 °F 68% 29.92 in 10.0 mi SSE 6.9 mph - N/A   Clear
7:15 PM 17.6 °F 6.4 °F 8.6 °F 68% 29.92 in 10.0 mi SSE 9.2 mph - N/A   Clear
7:36 PM 17.6 °F 7.3 °F 8.6 °F 68% 29.92 in 10.0 mi SSE 8.1 mph - N/A   Clear
7:55 PM 17.6 °F 7.3 °F 8.6 °F 68% 29.92 in 10.0 mi SSE 8.1 mph - N/A   Clear
8:16 PM 17.6 °F 7.3 °F 8.6 °F 68% 29.91 in 10.0 mi SSE 8.1 mph - N/A   Clear
8:35 PM 17.6 °F 6.4 °F 8.6 °F 68% 29.91 in 10.0 mi SSE 9.2 mph - N/A   Clear
8:55 PM 17.6 °F 7.3 °F 8.6 °F 68% 29.90 in 10.0 mi SSE 8.1 mph - N/A   Clear
9:15 PM 17.6 °F 7.3 °F 8.6 °F 68% 29.90 in 10.0 mi SSE 8.1 mph - N/A   Clear
9:36 PM 15.8 °F 5.1 °F 8.6 °F 73% 29.89 in 10.0 mi SSE 8.1 mph - N/A   Clear
9:55 PM 15.8 °F 4.2 °F 8.6 °F 73% 29.89 in 7.0 mi SSE 9.2 mph - N/A   Clear
10:15 PM 15.8 °F 4.2 °F 10.4 °F 79% 29.89 in 7.0 mi SSE 9.2 mph - N/A   Clear
10:36 PM 17.6 °F 7.3 °F 10.4 °F 73% 29.89 in 7.0 mi SSE 8.1 mph - N/A   Clear
10:55 PM 17.6 °F 7.3 °F 10.4 °F 73% 29.88 in 5.0 mi SSE 8.1 mph - N/A   Haze
11:16 PM 17.6 °F 6.4 °F 10.4 °F 73% 29.88 in 5.0 mi SSE 9.2 mph - N/A   Haze
11:31 PM 17.6 °F 5.7 °F 10.4 °F 73% 29.87 in 5.0 mi SSE 10.4 mph 16.1 mph N/A   Haze